[[{"header":{"parameterUnit":"m.s-1","parameterCategory":1,"la1":30.2991,"la2":30.254,"lo1":-89.0895,"lo2":-89.0444,"dy":0.0017,"dx":0.0017,"nx":28,"ny":28,"refTime":"2025-01-31T03:00:00:Z","depth":0,"parameterNumber":2,"parameterNumberName":"U-component_of_WINDS"},"data":[0,0,0,0,0,0,0,0,0,0,0,0,0,0,0,0,0,0,0,0,0,0,0,0,0,0,0,0,0,0,0,0,0,0,0,0,0,0,0,0,0,0,0,0,0,0,0,0,0,0,0,0,0,0,0,0,0,0,-0.3573,-0.3573,0,-0.3525,-0.3525,-0.3524,-0.3514,-0.3515,-0.3515,-0.3515,-0.3466,-0.3465,-0.3463,0,0,0,0,0,0,0,0,0,0,0,0,0,-0.3656,-0.3654,-0.3573,-0.3573,-0.3572,-0.3526,-0.3525,-0.3524,-0.3514,-0.3515,-0.3515,-0.3515,-0.3467,-0.3465,-0.3463,0,0,0,0,0,0,0,0,0,0,0,0,0,-0.3615,-0.3654,-0.3573,-0.3561,-0.356,-0.3526,-0.3525,-0.3524,-0.3514,-0.3515,-0.3515,-0.3516,-0.3467,-0.3465,-0.3463,-0.3437,0,0,-0.3455,-0.3454,0,0,0,0,0,0,0,0,-0.3618,-0.3612,-0.3564,-0.3562,-0.356,-0.3526,-0.3536,-0.3495,-0.3514,-0.3531,-0.3515,-0.3516,-0.3486,-0.3482,-0.3472,-0.3435,-0.3433,-0.3455,-0.3454,-0.3452,-0.3452,0,0,0,0,0,0,0,-0.362,-0.3614,-0.3554,-0.3563,-0.3561,-0.3558,-0.3553,-0.3528,-0.3506,-0.353,-0.3529,-0.3524,-0.3485,-0.3474,-0.3471,-0.3432,-0.3455,-0.3453,-0.3451,-0.345,-0.3371,-0.3371,0,0,0,0,0,0,-0.3625,-0.3617,-0.3556,-0.3553,-0.3591,-0.3557,-0.3551,-0.3537,-0.3506,-0.3502,-0.3523,-0.3523,-0.3478,-0.3473,-0.3469,-0.3437,-0.3452,-0.345,-0.3449,-0.3372,-0.3371,-0.337,0,0,0,0,0,0,-0.3627,-0.362,-0.3558,-0.3585,-0.3576,-0.3555,-0.3539,-0.3536,-0.3525,-0.3501,-0.3497,-0.3516,-0.3478,-0.3472,-0.3445,-0.3435,-0.3449,-0.3447,-0.3373,-0.3372,-0.3371,-0.3372,0,0,0,0,0,0,-0.363,-0.3621,-0.3611,-0.3584,-0.3575,-0.3535,-0.3538,-0.3534,-0.352,-0.352,-0.3494,-0.349,-0.3478,-0.3449,-0.3442,-0.3432,-0.3445,-0.3373,-0.3372,-0.3371,-0.3373,-0.3371,-0.337,0,0,0,0,0,-0.3633,-0.3613,-0.361,-0.3603,-0.3562,-0.3534,-0.3529,-0.3516,-0.352,-0.3509,-0.3494,-0.3491,-0.3437,-0.3446,-0.3439,-0.3427,-0.3374,-0.3373,-0.3371,-0.3374,-0.3372,-0.337,0,0,0,0,0,0,-0.3639,-0.3609,-0.3606,-0.3577,-0.3558,-0.3532,-0.3519,-0.3514,-0.3494,-0.3494,-0.3479,-0.3473,-0.3447,-0.3434,-0.3445,-0.3401,-0.3406,-0.3403,-0.341,-0.3408,-0.3407,-0.341,-0.3443,0,0,0,0,0,-0.3637,-0.3616,-0.3592,-0.3569,-0.356,-0.3541,-0.3528,-0.352,-0.35,-0.3492,-0.3475,-0.3455,-0.3434,-0.342,-0.3399,-0.3371,-0.3365,-0.336,-0.3358,-0.3357,-0.3355,-0.3339,-0.3336,-0.3366,-0.3366,-0.3366,0,0,-0.3632,-0.3614,-0.3602,-0.357,-0.3554,-0.3533,-0.3534,-0.3512,-0.3497,-0.3488,-0.3461,-0.3448,-0.3426,-0.3398,-0.3385,-0.3387,-0.3345,-0.3355,-0.3355,-0.3353,-0.3337,-0.3334,-0.3332,-0.3365,-0.3365,-0.3365,0,0,-0.3614,-0.3598,-0.3577,-0.3561,-0.3537,-0.3525,-0.352,-0.3495,-0.3486,-0.3459,-0.3452,-0.3434,-0.3397,-0.3381,-0.3368,-0.3344,-0.334,-0.3338,-0.333,-0.3315,-0.3313,-0.3311,-0.3302,-0.3299,-0.3336,-0.3336,-0.3336,0,-0.3611,-0.358,-0.3567,-0.3545,-0.3531,-0.3522,-0.3501,-0.3487,-0.3457,-0.3448,-0.345,-0.3405,-0.3389,-0.3357,-0.3351,-0.3341,-0.3335,-0.3341,-0.3314,-0.3312,-0.331,-0.3301,-0.3298,-0.3335,-0.3335,-0.3335,-0.3335,0,-0.3578,-0.3556,-0.3542,-0.3514,-0.3499,-0.3478,-0.3461,-0.3447,-0.344,-0.3428,-0.34,-0.3381,-0.3356,-0.3348,-0.3341,-0.3315,-0.3317,-0.3317,-0.3322,-0.3307,-0.3299,-0.3295,-0.3335,-0.3335,-0.3335,-0.3335,0,0,-0.3561,-0.3527,-0.3522,-0.3509,-0.3482,-0.3465,-0.3444,-0.3419,-0.3408,-0.3388,-0.3369,-0.3339,-0.3339,-0.3324,-0.3315,-0.3302,-0.3284,-0.3303,-0.3303,-0.33,-0.3255,-0.3255,-0.3251,-0.3281,-0.328,-0.328,-0.3256,0,-0.354,-0.3501,-0.3488,-0.3456,-0.3436,-0.3427,-0.3409,-0.339,-0.3378,-0.336,-0.3346,-0.3325,-0.3326,-0.3317,-0.3304,-0.3289,-0.3275,-0.3291,-0.3264,-0.3263,-0.327,-0.3247,-0.3247,-0.3226,-0.3253,-0.3253,-0.3252,0,-0.3509,-0.3489,-0.3454,-0.343,-0.3421,-0.3405,-0.3381,-0.3364,-0.3343,-0.3335,-0.3319,-0.3311,-0.3288,-0.3294,-0.3263,-0.3274,-0.3263,-0.3254,-0.3253,-0.325,-0.3257,-0.3243,-0.3219,-0.3216,-0.3247,-0.3247,-0.3248,0,-0.35,-0.3464,-0.3439,-0.3428,-0.34,-0.3388,-0.3376,-0.3355,-0.3342,-0.3321,-0.3312,-0.329,-0.3277,-0.326,-0.3247,-0.3252,-0.3217,-0.3221,-0.3209,-0.321,-0.3202,-0.3203,-0.3175,-0.3195,-0.3195,-0.3195,-0.3195,0,-0.3477,-0.3456,-0.3435,-0.3419,-0.3396,-0.3382,-0.3359,-0.3346,-0.3328,-0.331,-0.3302,-0.3285,-0.3268,-0.3249,-0.3239,-0.3214,-0.3209,-0.3202,-0.3199,-0.3203,-0.3204,-0.3195,-0.3196,-0.3194,-0.3194,-0.3194,-0.3195,0,-0.3463,-0.3448,-0.342,-0.3395,-0.3389,-0.3373,-0.3351,-0.3336,-0.3324,-0.3301,-0.3295,-0.3276,-0.3253,-0.3238,-0.3209,-0.3202,-0.3175,-0.3173,-0.3182,-0.3181,-0.317,-0.3171,-0.3136,-0.313,-0.3154,-0.3153,-0.3153,0,-0.3449,-0.3433,-0.3407,-0.3394,-0.3382,-0.3361,-0.3347,-0.3333,-0.3319,-0.3294,-0.3282,-0.3258,-0.3239,-0.3203,-0.3187,-0.3164,-0.3162,-0.3151,-0.3158,-0.3162,-0.3161,-0.3163,-0.3161,-0.315,-0.3149,-0.3149,-0.3149,0,-0.3426,-0.342,-0.34,-0.3377,-0.3361,-0.3342,-0.3324,-0.3314,-0.3296,-0.3281,-0.3258,-0.3243,-0.3213,-0.319,-0.3167,-0.3154,-0.3149,-0.3147,-0.3143,-0.3146,-0.3152,-0.3149,-0.3179,-0.3148,-0.3148,-0.3148,-0.3148,-0.3148,-0.3412,-0.3397,-0.3376,-0.3355,-0.3339,-0.3322,-0.3307,-0.3293,-0.3273,-0.3248,-0.3241,-0.3216,-0.3196,-0.3164,-0.3151,-0.3132,-0.3133,-0.3127,-0.3126,-0.3124,-0.3124,-0.3155,-0.3127,-0.3127,-0.3127,-0.3127,-0.3127,0,-0.3388,-0.3375,-0.3355,-0.3329,-0.3312,-0.3309,-0.3288,-0.3274,-0.3253,-0.3234,-0.3216,-0.3189,-0.3167,-0.3149,-0.3126,-0.3114,-0.3111,-0.3109,-0.3109,-0.3106,-0.3125,-0.313,-0.3111,-0.3111,-0.3111,-0.3111,-0.3111,-0.3111,-0.3374,-0.3349,-0.334,-0.3308,-0.3294,-0.327,-0.3259,-0.3243,-0.3228,-0.3199,-0.3181,-0.3169,-0.3151,-0.3126,-0.3106,-0.3101,-0.3093,-0.3091,-0.3086,-0.3103,-0.3105,-0.3107,-0.3112,-0.309,-0.309,-0.3069,-0.3069,-0.3069]},{"header":{"parameterUnit":"m.s-1","parameterCategory":1,"la1":30.2991,"la2":30.254,"lo1":-89.0895,"lo2":-89.0444,"dy":0.0017,"dx":0.0017,"nx":28,"ny":28,"refTime":"2025-01-31T03:00:00:Z","depth":0,"parameterNumber":3,"parameterNumberName":"V-component_of_WINDS"},"data":[0,0,0,0,0,0,0,0,0,0,0,0,0,0,0,0,0,0,0,0,0,0,0,0,0,0,0,0,0,0,0,0,0,0,0,0,0,0,0,0,0,0,0,0,0,0,0,0,0,0,0,0,0,0,0,0,0,0,-0.441,-0.4411,0,-0.4431,-0.4432,-0.4432,-0.4402,-0.4401,-0.44,-0.4399,-0.442,-0.4421,-0.4423,0,0,0,0,0,0,0,0,0,0,0,0,0,-0.4345,-0.4346,-0.441,-0.4411,-0.4411,-0.4431,-0.4432,-0.4432,-0.4402,-0.4401,-0.4399,-0.4398,-0.4419,-0.4421,-0.4423,0,0,0,0,0,0,0,0,0,0,0,0,0,-0.437,-0.4347,-0.441,-0.4398,-0.4398,-0.4431,-0.4432,-0.4432,-0.4402,-0.4401,-0.4399,-0.4398,-0.4419,-0.4421,-0.4423,-0.4469,0,0,-0.443,-0.4431,0,0,0,0,0,0,0,0,-0.4369,-0.4373,-0.44,-0.4399,-0.4398,-0.4412,-0.4416,-0.4444,-0.4403,-0.4401,-0.4399,-0.4397,-0.4418,-0.4421,-0.4428,-0.447,-0.4471,-0.443,-0.4432,-0.4433,-0.4433,0,0,0,0,0,0,0,-0.4367,-0.4372,-0.4419,-0.44,-0.44,-0.4392,-0.4394,-0.4421,-0.4418,-0.4401,-0.4398,-0.4401,-0.4418,-0.4426,-0.4428,-0.4471,-0.443,-0.4432,-0.4434,-0.4435,-0.4555,-0.4556,0,0,0,0,0,0,-0.4367,-0.437,-0.4418,-0.4419,-0.4379,-0.4395,-0.4397,-0.441,-0.4418,-0.4417,-0.4403,-0.44,-0.4423,-0.4426,-0.4429,-0.4486,-0.4433,-0.4435,-0.4436,-0.4553,-0.4555,-0.4557,0,0,0,0,0,0,-0.4365,-0.4371,-0.4417,-0.4394,-0.44,-0.4398,-0.4412,-0.4411,-0.4419,-0.4419,-0.4419,-0.4412,-0.4422,-0.4426,-0.446,-0.4486,-0.4436,-0.4438,-0.4551,-0.4554,-0.4556,-0.4599,0,0,0,0,0,0,-0.4364,-0.4371,-0.4388,-0.4395,-0.4401,-0.4448,-0.4414,-0.4412,-0.4423,-0.442,-0.4428,-0.4427,-0.4421,-0.4457,-0.4462,-0.4488,-0.444,-0.4548,-0.4552,-0.4555,-0.4595,-0.4603,-0.4609,0,0,0,0,0,-0.4361,-0.4399,-0.4389,-0.4395,-0.4423,-0.4449,-0.4453,-0.4445,-0.4425,-0.4443,-0.4444,-0.4427,-0.4482,-0.446,-0.4466,-0.4494,-0.4547,-0.4551,-0.4555,-0.4592,-0.4601,-0.4609,0,0,0,0,0,0,-0.4395,-0.4399,-0.4389,-0.4429,-0.444,-0.4444,-0.4467,-0.4454,-0.4469,-0.4466,-0.4454,-0.4456,-0.4494,-0.4496,-0.4473,-0.454,-0.4511,-0.4517,-0.4537,-0.4546,-0.4553,-0.4553,-0.4442,0,0,0,0,0,-0.4407,-0.4428,-0.4431,-0.4466,-0.4472,-0.4469,-0.448,-0.4473,-0.4482,-0.4486,-0.4489,-0.4499,-0.4519,-0.4532,-0.455,-0.4594,-0.4597,-0.4616,-0.4623,-0.4629,-0.4635,-0.4661,-0.4671,-0.457,-0.457,-0.457,0,0,-0.4432,-0.4437,-0.4451,-0.4473,-0.448,-0.4504,-0.4472,-0.4497,-0.4515,-0.449,-0.4524,-0.4526,-0.4536,-0.4577,-0.4595,-0.458,-0.4663,-0.4634,-0.4639,-0.4641,-0.4666,-0.4676,-0.4684,-0.4573,-0.4573,-0.4572,0,0,-0.4491,-0.4496,-0.4527,-0.4535,-0.4546,-0.4544,-0.4551,-0.4558,-0.456,-0.4593,-0.4575,-0.4595,-0.4629,-0.4638,-0.4647,-0.471,-0.4697,-0.4716,-0.4754,-0.478,-0.4788,-0.4795,-0.482,-0.4829,-0.4721,-0.4721,-0.4721,0,-0.4521,-0.4555,-0.4545,-0.4573,-0.4584,-0.4562,-0.4595,-0.4603,-0.4619,-0.4627,-0.4611,-0.4654,-0.4659,-0.4703,-0.4718,-0.4725,-0.4735,-0.4716,-0.4787,-0.4794,-0.48,-0.4825,-0.4834,-0.4724,-0.4723,-0.4723,-0.4723,0,-0.4593,-0.4618,-0.4642,-0.4659,-0.4673,-0.4702,-0.4697,-0.4712,-0.4703,-0.4703,-0.4738,-0.4744,-0.4764,-0.4773,-0.4764,-0.4816,-0.4807,-0.4789,-0.476,-0.4813,-0.4836,-0.4845,-0.4727,-0.4726,-0.4725,-0.4725,0,0,-0.4675,-0.4687,-0.4696,-0.4705,-0.4716,-0.4735,-0.4764,-0.4784,-0.4798,-0.4809,-0.4835,-0.4864,-0.4848,-0.4859,-0.485,-0.4873,-0.4927,-0.4852,-0.4852,-0.4869,-0.4987,-0.5004,-0.5014,-0.4916,-0.4918,-0.4919,-0.4988,0,-0.4736,-0.4787,-0.4779,-0.483,-0.4853,-0.4833,-0.4859,-0.4869,-0.4869,-0.4889,-0.4889,-0.4911,-0.4887,-0.4893,-0.4914,-0.4916,-0.4951,-0.491,-0.4942,-0.4943,-0.4944,-0.5026,-0.5042,-0.5107,-0.4996,-0.4998,-0.4999,0,-0.4814,-0.4831,-0.4884,-0.4893,-0.4903,-0.4926,-0.4945,-0.4964,-0.4975,-0.4974,-0.4986,-0.4974,-0.5004,-0.4973,-0.5015,-0.4988,-0.5,-0.5003,-0.5005,-0.501,-0.4977,-0.5036,-0.5127,-0.5138,-0.5012,-0.5011,-0.501,0,-0.4873,-0.4907,-0.4944,-0.4952,-0.4963,-0.498,-0.4986,-0.4995,-0.5008,-0.5024,-0.5033,-0.5052,-0.5063,-0.5078,-0.5073,-0.505,-0.5117,-0.5085,-0.5119,-0.5119,-0.5136,-0.5136,-0.5233,-0.5139,-0.5139,-0.5138,-0.5138,0,-0.4944,-0.4978,-0.4971,-0.4994,-0.5032,-0.5022,-0.506,-0.5063,-0.5071,-0.5095,-0.5078,-0.5101,-0.509,-0.5112,-0.5107,-0.5145,-0.5149,-0.515,-0.5149,-0.5154,-0.5154,-0.5164,-0.516,-0.5141,-0.514,-0.514,-0.5139,0,-0.5016,-0.5013,-0.5052,-0.506,-0.5063,-0.5091,-0.5097,-0.5119,-0.5118,-0.5149,-0.5155,-0.5154,-0.5179,-0.5174,-0.5201,-0.5198,-0.5246,-0.5238,-0.5243,-0.5243,-0.5278,-0.5276,-0.5388,-0.5403,-0.5295,-0.5296,-0.5297,0,-0.5063,-0.5089,-0.51,-0.5116,-0.5123,-0.5147,-0.5161,-0.5152,-0.5167,-0.5183,-0.5203,-0.5227,-0.5246,-0.5287,-0.5289,-0.531,-0.5304,-0.5342,-0.5308,-0.5312,-0.5309,-0.5309,-0.5313,-0.535,-0.5351,-0.5352,-0.5353,0,-0.5149,-0.5146,-0.5167,-0.5189,-0.5206,-0.5222,-0.5236,-0.5249,-0.5242,-0.526,-0.5286,-0.5301,-0.533,-0.5355,-0.5375,-0.538,-0.5367,-0.5363,-0.5373,-0.538,-0.5383,-0.5385,-0.5266,-0.5361,-0.5361,-0.536,-0.536,-0.5359,-0.5212,-0.5236,-0.5248,-0.5272,-0.5282,-0.5297,-0.5319,-0.5321,-0.5343,-0.5366,-0.5359,-0.539,-0.5401,-0.5427,-0.5435,-0.5459,-0.5445,-0.5458,-0.5462,-0.5467,-0.5473,-0.5377,-0.5462,-0.5462,-0.5462,-0.5461,-0.5461,0,-0.5299,-0.5307,-0.5329,-0.5351,-0.5371,-0.5355,-0.537,-0.5388,-0.5416,-0.5428,-0.5447,-0.5479,-0.5503,-0.5506,-0.5529,-0.5548,-0.5543,-0.5555,-0.5555,-0.5557,-0.5482,-0.5473,-0.5559,-0.5559,-0.5559,-0.5559,-0.5559,-0.5559,-0.5348,-0.5388,-0.5387,-0.5432,-0.5438,-0.5469,-0.5479,-0.5493,-0.5503,-0.5539,-0.5559,-0.5561,-0.5571,-0.5595,-0.5617,-0.5617,-0.5628,-0.5643,-0.5642,-0.5572,-0.5562,-0.5553,-0.5545,-0.5645,-0.5645,-0.5716,-0.5716,-0.5717]}]]